Preview of NWS' New Version of Forecast
This preview is not operational and should not be used for support decisions.

Regional Weather Roundup (RWR)

Issued by National Weather Service (NWS)

                            
000
ASUS43 KLSX 222107
RWRMO 

WEATHER SUMMARY FOR MISSOURI
NATIONAL WEATHER SERVICE SPRINGFIELD MO
400 PM CDT MON JUL 22 2019

NOTE: "FAIR" INDICATES FEW OR NO CLOUDS BELOW 12,000 FEET WITH NO
       SIGNIFICANT WEATHER AND/OR OBSTRUCTIONS TO VISIBILITY.
       CURRENT SKY AND/OR WEATHER CONDITIONS ARE NOT AVAILABLE FOR
       CHILLICOTHE AND FARMINGTON.

MOZ001>031-035>038-043-044-053-054-222200-
...NORTHERN AND WESTERN MISSOURI...
  
CITY           SKY/WX    TMP DP  RH WIND       PRES   REMARKS
KANSAS CTY INT PTSUNNY   79  57  46 N18G24    30.17R                  
KANSAS C DTWN  PTSUNNY   83  55  38 N16G26    30.14S                  
LEE'S SUMMIT   PTSUNNY   82  59  45 N18G24    30.15S                  
ST JOSEPH      MOSUNNY   80  57  45 N14G24    30.17S                  
CHILLICOTHE      N/A     82  61  48 MISG      30.14S                  
KIRKSVILLE     MOSUNNY   82  59  45 N13       30.13S                  
     
$$
MOZ066>068-077>081-088>096-101>105-222200-
...SOUTHWEST MISSOURI...
  
CITY           SKY/WX    TMP DP  RH WIND       PRES   REMARKS
SPRINGFIELD    SUNNY     83  59  44 N22G30    30.08S                  
JOPLIN         MOSUNNY   82  65  56 N12       30.11S                  
BRANSON        PTSUNNY   82  63  51 N16G23    30.08R                  
               
$$
MOZ032>034-039>042-045>050-055>058-069>072-222200-
...CENTRAL MISSOURI...  
  
CITY           SKY/WX    TMP DP  RH WIND       PRES   REMARKS
COLUMBIA       SUNNY     83  60  45 N20G26    30.08F                  
ROLLA          PTSUNNY   80  62  54 N10G21    30.07S                  
SEDALIA        MOSUNNY   79  62  56 N15       30.12S                  
WHITEMAN AFB   MOSUNNY   81  64  55 N14       30.07F                  
WARRENSBURG    MOSUNNY   81  59  47 NW14G21   30.12S                  
OSAGE BEACH    MOSUNNY   82  63  52 N8G18     30.08S                  
               
$$
MOZ051-052-059>065-222200-
...EAST CENTRAL MISSOURI...
  
CITY           SKY/WX    TMP DP  RH WIND       PRES   REMARKS
ST LOUIS INTL  PTSUNNY   81  64  56 NE10      30.04S                  
SPIRIT OF STL  CLOUDY    79  65  62 NE9       30.02F                  
ST CHARLES       N/A    N/A N/A N/A MISG      30.03S                  
                   
$$
MOZ072>076-082>087-097>100-106>115-222200-
...SOUTH CENTRAL AND SOUTHEAST MISSOURI...
  
CITY           SKY/WX    TMP DP  RH WIND       PRES   REMARKS
CAPE GIRARDEAU PTSUNNY   78  66  66 N12G23    29.97F                  
FARMINGTON     SUNNY     77  62  59 N9        30.05S                  
POPLAR BLUFF   PTSUNNY   77  69  76 N14       29.98S                  
WEST PLAINS    MOSUNNY   79  63  57 N17G26    30.07R                  
                                       
$$